Regional Weather Roundup
Issued by NWS Albany, NY

Home | Current Version | Previous Version | Text Only | Print | Product List | Glossary On
Versions: 1 2 3 4 5 6 7 8 9 10 11 12 13 14 15 16 17 18 19 20 21 22 23 24 25 26 27 28 29 30 31 32 33 34 35 36 37 38 39 40 41 42 43 44 45 46 47 48 49 50
000
ASUS41 KALY 131710
RWRALY

NEW YORK STATE HOURLY WEATHER ROUNDUP
NATIONAL WEATHER SERVICE ALBANY NY
100 PM EDT SUN JUL 13 2014

NOTE: "FAIR" INDICATES FEW OR NO CLOUDS BELOW 12,000 FEET WITH NO
SIGNIFICANT WEATHER AND/OR NO OBSTRUCTIONS TO VISIBILITY.

NYZ032-033-038>043-046>054-057>066-NYZ062>081-131800-
EAST


CITY           SKY/WX    TMP DP  RH WIND       PRES   REMARKS
ALBANY         CLOUDY    77  68  73 S17G25    29.93F
GLENS FALLS    CLOUDY    76  69  79 S13G23    29.91S
POUGHKEEPSIE   CLOUDY    79  70  74 S5        29.98F
NEWBURGH       CLOUDY    79  72  78 SW15      30.01F
MONTGOMERY     CLOUDY    78  70  76 SW9       29.99F
WHITE PLAINS   PTSUNNY   78  69  73 S12G20    30.03F
ISLIP          CLOUDY    76  68  76 S15G24    30.04F
NEW YORK CITY  PTSUNNY   81  68  64 S15       30.02F
CENTRAL PARK   MOSUNNY   81  68  64 VRB5      30.05F
$$

NYZ005>009-017-018-044>046-055-056-131800-
CENTRAL


CITY           SKY/WX    TMP DP  RH WIND       PRES   REMARKS
FULTON         RAIN      71  68  90 S13G20    29.83F FOG
SYRACUSE       LGT RAIN  78  67  68 S12       29.84S
ROME           LGT RAIN  79  68  69 S9        29.86F
ELMIRA         LGT RAIN  74  71  91 CALM      29.90F FOG
BINGHAMTON     LGT RAIN  75  68  78 SW9       29.97F
$$

NYZ026>034-041>043-131800-
NORTH


CITY           SKY/WX    TMP DP  RH WIND       PRES   REMARKS
WATERTOWN      LGT RAIN  75  67  76 SW20G26   29.79S
FORT DRUM      NOT AVBL
MASSENA        CLOUDY    74  72  93 S8        29.75F
SARANAC LAKE   LGT RAIN  72  66  81 SW13      29.85F
PLATTSBURGH    LGT RAIN  73  67  81 S7G17     29.82F
$$

NYZ001>004-010>016-019>021-131800-
WEST


CITY           SKY/WX    TMP DP  RH WIND       PRES   REMARKS
NIAGARA FALLS  TSTM      73  69  87 SW17G29   29.77S
BUFFALO        TSTM      72  69  90 SW10      29.80R VSB 1
DUNKIRK        CLOUDY    78  69  73 SW13G29   29.79F
JAMESTOWN      CLOUDY    73  68  83 S13G20    29.89F
WELLSVILLE     CLOUDY    70  66  87 S8        29.95F
ROCHESTER      CLOUDY    74  69  85 SW12G20   29.79F
PENN YAN       CLOUDY    72  67  84 SW14      29.88S HAZE
$$

             KEY
       WCI = WIND CHILL INDEX
       VSB = VISIBILITY
       HX  = HEAT INDEX
$$



USA.gov is the U.S. government's official web portal to all federal, state and local government web resources and services.